Savoonga, AK

1:28 PM AKST on December 04, 2016 (GMT -0900)
Savoonga

Weather History for PASA - October, 2012

Change the Weather History Date:

Tuesday, October 30, 2012

  Actual Average Record
Temperature  
Mean Temperature 26 °F -  
Max Temperature 28 °F 30 °F 41 °F (2003)
Min Temperature 24 °F 25 °F 15 °F (1997)
Degree Days  
Heating Degree Days 39    
Moisture  
Dew Point 18 °F    
Average Humidity 71    
Maximum Humidity 80    
Minimum Humidity 59    
Precipitation  
Precipitation 0.00 in - - ()
Sea Level Pressure  
Sea Level Pressure 30.73 in    
Wind  
Wind Speed 20 mph (North)    
Max Wind Speed 25 mph    
Max Gust Speed 32 mph    
Visibility 10 miles    
Events      
Averages and records for this station are not official NWS values.
T = Trace of Precipitation, MM = Missing Value Source: NWS Daily Summary

Daily Weather History Graph

Daily Weather History Graph

Search for Another Location

Airport or City:

Trip Planner

Search our weather history database for the weather conditions in past years. The results will help you decide how hot, cold, wet, or windy it might be!

Date:

Astronomy

Oct. 30, 2012 Rise Set
Actual Time 10:58 AM AKDT 7:11 PM AKDT
Civil Twilight 10:06 AM AKDT 8:03 PM AKDT
Nautical Twilight 9:10 AM AKDT 8:58 PM AKDT
Astronomical Twilight 8:16 AM AKDT 9:53 PM AKDT
Moon 7:11 PM AKDT (10/30) 12:33 PM AKDT (10/30)
Length of Visible Light 9h 56m
Length of Day
8h 12m
Full, 99% of the Moon is Illuminated
Oct 30
Full
Nov 6
Last Quarter
Nov 13
New
Nov 20
First Quarter
Nov 28
Full

Hourly Weather History & Observations

Time (AKDT) Temp. Windchill Dew Point Humidity Pressure Visibility Wind Dir Wind Speed Gust Speed Precip Events Conditions
12:16 AM 24.8 °F 11.1 °F 15.8 °F 69% 30.74 in 10.0 mi NNW 18.4 mph 26.5 mph N/A   Overcast
12:56 AM 24.8 °F 10.3 °F 12.2 °F 59% 30.74 in 10.0 mi North 20.7 mph 25.3 mph N/A   Overcast
1:16 AM 24.8 °F 10.7 °F 12.2 °F 59% 30.74 in 10.0 mi North 19.6 mph - N/A   Overcast
1:36 AM 24.8 °F 11.5 °F 12.2 °F 59% 30.74 in 10.0 mi NNW 17.3 mph 23.0 mph N/A   Overcast
1:56 AM 24.8 °F 10.3 °F 14.0 °F 64% 30.74 in 10.0 mi North 20.7 mph 26.5 mph N/A   Overcast
2:16 AM 24.8 °F 10.7 °F 14.0 °F 64% 30.75 in 10.0 mi North 19.6 mph 27.6 mph N/A   Overcast
2:36 AM 24.8 °F 10.7 °F 14.0 °F 64% 30.75 in 10.0 mi NNW 19.6 mph 26.5 mph N/A   Overcast
2:56 AM 24.8 °F 11.1 °F 15.8 °F 69% 30.74 in 10.0 mi North 18.4 mph 32.2 mph N/A   Overcast
3:16 AM 24.8 °F 9.6 °F 14.0 °F 64% 30.74 in 10.0 mi North 23.0 mph 28.8 mph N/A   Overcast
3:36 AM 24.8 °F 10.0 °F 17.6 °F 74% 30.75 in 10.0 mi North 21.9 mph 31.1 mph N/A   Overcast
3:56 AM 24.8 °F 10.0 °F 17.6 °F 74% 30.75 in 10.0 mi North 21.9 mph 31.1 mph N/A   Overcast
4:16 AM 24.8 °F 9.6 °F 17.6 °F 74% 30.74 in 10.0 mi North 23.0 mph 29.9 mph N/A   Overcast
4:36 AM 24.8 °F 9.6 °F 17.6 °F 74% 30.75 in 10.0 mi North 23.0 mph - N/A   Overcast
4:56 AM 24.8 °F 10.0 °F 15.8 °F 69% 30.75 in 10.0 mi North 21.9 mph 28.8 mph N/A   Overcast
5:16 AM 24.8 °F 9.3 °F 17.6 °F 74% 30.75 in 10.0 mi North 24.2 mph 29.9 mph N/A   Overcast
5:36 AM - - - N/A% 30.74 in 10.0 mi North 25.3 mph 31.1 mph N/A   Overcast
5:56 AM 24.8 °F 10.3 °F 17.6 °F 74% 30.76 in 10.0 mi North 20.7 mph 28.8 mph N/A   Overcast
6:16 AM 26.6 °F 13.4 °F 17.6 °F 69% 30.75 in 10.0 mi North 18.4 mph 27.6 mph N/A   Overcast
6:36 AM 24.8 °F 10.0 °F 19.4 °F 80% 30.75 in 10.0 mi North 21.9 mph 28.8 mph N/A   Overcast
6:56 AM 24.8 °F 10.3 °F 19.4 °F 80% 30.75 in 10.0 mi North 20.7 mph 26.5 mph N/A   Overcast
7:16 AM 26.6 °F 12.0 °F 19.4 °F 74% 30.75 in 10.0 mi North 23.0 mph 29.9 mph N/A   Overcast
7:36 AM 24.8 °F 9.6 °F 19.4 °F 80% 30.75 in 10.0 mi North 23.0 mph 28.8 mph N/A   Overcast
8:16 AM 24.8 °F 10.3 °F 19.4 °F 80% 30.74 in 10.0 mi North 20.7 mph 26.5 mph N/A   Overcast
8:36 AM 26.6 °F 12.7 °F 19.4 °F 74% 30.74 in 10.0 mi North 20.7 mph 26.5 mph N/A   Overcast
8:56 AM 26.6 °F 13.4 °F 19.4 °F 74% 30.74 in 10.0 mi North 18.4 mph 27.6 mph N/A   Overcast
9:16 AM 26.6 °F 12.7 °F 19.4 °F 74% 30.74 in 10.0 mi North 20.7 mph 28.8 mph N/A   Overcast
9:36 AM 26.6 °F 12.4 °F 19.4 °F 74% 30.73 in 10.0 mi North 21.9 mph 27.6 mph N/A   Overcast
9:56 AM 26.6 °F 15.7 °F 19.4 °F 74% 30.75 in 10.0 mi North 12.7 mph 24.2 mph N/A   Overcast
10:16 AM 26.6 °F 14.3 °F 21.2 °F 80% 30.75 in 10.0 mi North 16.1 mph 24.2 mph N/A   Overcast
10:36 AM 26.6 °F 13.4 °F 19.4 °F 74% 30.75 in 10.0 mi North 18.4 mph 27.6 mph N/A   Overcast
10:56 AM 28.4 °F 15.1 °F 19.4 °F 69% 30.75 in 10.0 mi North 20.7 mph 24.2 mph N/A   Overcast
11:16 AM 26.6 °F 14.3 °F 19.4 °F 74% 30.75 in 10.0 mi North 16.1 mph 31.1 mph N/A   Overcast
11:36 AM 26.6 °F 13.1 °F 19.4 °F 74% 30.75 in 10.0 mi North 19.6 mph 27.6 mph N/A   Overcast
11:56 AM 26.6 °F 13.8 °F 17.6 °F 69% 30.76 in 10.0 mi North 17.3 mph 29.9 mph N/A   Overcast
12:16 PM 26.6 °F 12.0 °F 19.4 °F 74% 30.75 in 10.0 mi North 23.0 mph 29.9 mph N/A   Overcast
12:36 PM 26.6 °F 13.1 °F 19.4 °F 74% 30.76 in 10.0 mi North 19.6 mph 26.5 mph N/A   Overcast
12:56 PM 26.6 °F 13.1 °F 17.6 °F 69% 30.76 in 10.0 mi North 19.6 mph 27.6 mph N/A   Overcast
1:16 PM 26.6 °F 13.4 °F 17.6 °F 69% 30.75 in 10.0 mi North 18.4 mph 25.3 mph N/A   Overcast
1:36 PM 26.6 °F 13.1 °F 19.4 °F 74% 30.75 in 10.0 mi North 19.6 mph 27.6 mph N/A   Overcast
1:56 PM 26.6 °F 12.7 °F 19.4 °F 74% 30.75 in 10.0 mi North 20.7 mph 29.9 mph N/A   Overcast
2:16 PM 26.6 °F 13.8 °F 19.4 °F 74% 30.75 in 10.0 mi North 17.3 mph 24.2 mph N/A   Overcast
2:36 PM 26.6 °F 14.3 °F 17.6 °F 69% 30.75 in 10.0 mi North 16.1 mph 25.3 mph N/A   Overcast
2:56 PM 26.6 °F 13.4 °F 19.4 °F 74% 30.74 in 10.0 mi North 18.4 mph 25.3 mph N/A   Overcast
3:16 PM 26.6 °F 12.7 °F 19.4 °F 74% 30.74 in 10.0 mi North 20.7 mph 28.8 mph N/A   Overcast
3:36 PM 26.6 °F 12.7 °F 19.4 °F 74% 30.73 in 10.0 mi North 20.7 mph - N/A   Overcast
3:56 PM 26.6 °F 12.7 °F 17.6 °F 69% 30.73 in 10.0 mi North 20.7 mph 28.8 mph N/A   Overcast
4:16 PM 26.6 °F 13.1 °F 19.4 °F 74% 30.73 in 10.0 mi NNW 19.6 mph - N/A   Overcast
4:36 PM 26.6 °F 13.1 °F 21.2 °F 80% 30.73 in 10.0 mi NNW 19.6 mph 25.3 mph N/A   Overcast
4:56 PM 26.6 °F 12.7 °F 21.2 °F 80% 30.72 in 10.0 mi North 20.7 mph 25.3 mph N/A   Overcast
5:16 PM 26.6 °F 13.4 °F 21.2 °F 80% 30.72 in 10.0 mi NNW 18.4 mph 27.6 mph N/A   Overcast
5:36 PM 26.6 °F 12.0 °F 21.2 °F 80% 30.72 in 10.0 mi North 23.0 mph 28.8 mph N/A   Overcast
5:56 PM 26.6 °F 12.4 °F 21.2 °F 80% 30.71 in 10.0 mi North 21.9 mph 27.6 mph N/A   Overcast
6:16 PM 28.4 °F 16.2 °F 21.2 °F 74% 30.72 in 10.0 mi North 17.3 mph 26.5 mph N/A   Overcast
6:36 PM 28.4 °F 16.6 °F 19.4 °F 69% 30.71 in 10.0 mi North 16.1 mph 25.3 mph N/A   Overcast
6:56 PM 28.4 °F 16.2 °F 17.6 °F 64% 30.71 in 10.0 mi NNE 17.3 mph 28.8 mph N/A   Overcast
7:16 PM 28.4 °F 15.8 °F 19.4 °F 69% 30.71 in 10.0 mi North 18.4 mph 25.3 mph N/A   Overcast
7:36 PM 28.4 °F 15.8 °F 19.4 °F 69% 30.71 in 10.0 mi North 18.4 mph 24.2 mph N/A   Overcast
7:56 PM 28.4 °F 15.8 °F 17.6 °F 64% 30.71 in 10.0 mi North 18.4 mph 28.8 mph N/A   Overcast
8:16 PM 28.4 °F 15.1 °F 17.6 °F 64% 30.70 in 10.0 mi North 20.7 mph 25.3 mph N/A   Overcast
8:36 PM 28.4 °F 15.8 °F 15.8 °F 59% 30.70 in 10.0 mi NNE 18.4 mph 25.3 mph N/A   Overcast
8:56 PM 28.4 °F 16.6 °F 17.6 °F 64% 30.70 in 10.0 mi North 16.1 mph 26.5 mph N/A   Overcast
9:16 PM 28.4 °F 16.2 °F 19.4 °F 69% 30.70 in 10.0 mi North 17.3 mph 23.0 mph N/A   Overcast
9:36 PM 28.4 °F 16.2 °F 17.6 °F 64% 30.70 in 10.0 mi NNE 17.3 mph 25.3 mph N/A   Overcast
9:56 PM 28.4 °F 15.1 °F 19.4 °F 69% 30.70 in 10.0 mi NNE 20.7 mph 27.6 mph N/A   Overcast
10:16 PM 28.4 °F 15.4 °F 21.2 °F 74% 30.69 in 10.0 mi NNE 19.6 mph 27.6 mph N/A   Mostly Cloudy
10:36 PM 28.4 °F 15.8 °F 19.4 °F 69% 30.69 in 10.0 mi NNE 18.4 mph 24.2 mph N/A   Overcast
10:56 PM 28.4 °F 16.2 °F 21.2 °F 74% 30.69 in 10.0 mi NNE 17.3 mph 26.5 mph N/A   Overcast
11:16 PM 28.4 °F 14.7 °F 21.2 °F 74% 30.69 in 10.0 mi North 21.9 mph 25.3 mph N/A   Overcast
11:36 PM 28.4 °F 16.2 °F 19.4 °F 69% 30.69 in 10.0 mi NNE 17.3 mph 27.6 mph N/A   Overcast
11:56 PM 28.4 °F 15.4 °F 21.2 °F 74% 30.69 in 10.0 mi NNE 19.6 mph 29.9 mph N/A   Overcast